User: anonymous   Login
Location: Huesca
(42.1318°N, 0.4078°W)
Time: 15:09:59
(UTC+02:00)
Language:

Transit 4A - Orbit

View from above orbital plane
View from above orbital plane
View from above satellite
View from above satellite

Ground track
Ground track

The orbit data is extracted from the following two-line orbital elements,

1   116U 61015A   24201.21358613  .00000289  00000-0  28030-3 0  9994
2   116  66.8090 158.4338 0070731  38.2800 322.3270 13.92062445200041
Epoch (UTC): 19 July 2024 05:07:33
Eccentricity: 0.0070731
inclination: 66.8090°
perigee height: 870 km
apogee height: 973 km
right ascension of ascending node: 158.4338°
argument of perigee: 38.2800°
revolutions per day: 13.92062445
mean anomaly at epoch: 322.3270°
orbit number at epoch: 20004

The dashed part of the orbit path shows where the satellite is in the earth's shadow,  

DLR